Flag Weather past 2 weeks in Hobart, Tasmania, Australia

Now
59 °F

Partly sunny.


Feels Like: 57 °F
Forecast: 51 / 73 °F
Wind: 9 mph from North

Location: Hobart Airport

Current Time: Oct 31, 2014 at 10:18:35 AM

Latest Report: Oct 31, 2014 at 10:00 AM


Visibility: N/A

Pressure: 29.65 "Hg

Humidity: 59%

Dew point: 45 °F

Location of HobartLocation

Historic Weather in Hobart — Graph

°F

Hobart temperature yesterday

Maximum temperature yesterday: 63 °F (at 11:00 AM)
Minimum temperature yesterday: 52 °F (at 11:30 PM)
Average temperature yesterday: 56 °F

Past Weeks' High & Low Weather Summary

 TemperatureHumidityPressure
High75 °F (Oct 22, 1:00 PM)94% (Oct 25, 2:00 AM)30.57 "Hg (Oct 25, 2:00 AM)
Low39 °F (Oct 17, 4:00 AM)30% (Oct 21, 2:30 PM)29.21 "Hg (Oct 28, 2:30 AM)
Average55 °F63%29.99 "Hg
* Reported Oct 16 9:00 AM — Oct 31 9:00 AM, Hobart, Weather by CustomWeather, © 2014

Note: Actual official high and low records may vary slightly from our data, if they occured in-between our weather recording intervals... More about our weather records

Advertising

Hobart weather history for previous 24 hours

 ConditionsComfort  
Time TempWeatherWind HumidityBarometerVisibility
9:00 AM
Oct 31
57 °FPartly sunny.13 mph59%29.65 "HgN/A
8:30 AM59 °FPartly sunny.10 mph55%29.65 "HgN/A
8:00 AM57 °FBroken clouds.9 mph63%29.68 "HgN/A
7:30 AM55 °FBroken clouds.9 mph63%29.68 "HgN/A
7:00 AM55 °FBroken clouds.8 mph63%29.68 "HgN/A
6:30 AM54 °FBroken clouds.9 mph67%29.68 "HgN/A
6:00 AM52 °FBroken clouds.9 mph77%29.68 "HgN/A
5:30 AM54 °FPartly cloudy.8 mph67%29.68 "HgN/A
5:00 AM55 °FPartly cloudy.10 mph63%29.68 "HgN/A
4:30 AM54 °FPartly cloudy.8 mph72%29.68 "HgN/A
4:00 AM52 °FPassing clouds.6 mph82%29.71 "HgN/A
3:30 AM52 °FPassing clouds.5 mph77%29.71 "HgN/A
3:00 AM50 °FPartly cloudy.5 mph82%29.71 "HgN/A
2:30 AM52 °FClear.7 mph77%29.71 "Hg10 mi
2:00 AM52 °FClear.8 mph82%29.74 "Hg10 mi
1:30 AM52 °FPassing clouds.8 mph77%29.74 "HgN/A
1:00 AM50 °FPassing clouds.7 mph88%29.77 "HgN/A
12:30 AM52 °FPassing clouds.7 mph82%29.77 "HgN/A
12:00 AM54 °FPartly cloudy.7 mph77%29.77 "HgN/A
11:30 PM
Oct 30
52 °FPassing clouds.3 mph82%29.77 "HgN/A
11:00 PM54 °FPassing clouds.6 mph77%29.77 "HgN/A
10:30 PM54 °FPartly cloudy.5 mph72%29.80 "HgN/A
10:00 PM54 °FPassing clouds.7 mph72%29.80 "HgN/A
9:30 PM55 °FPartly cloudy.8 mph63%29.80 "HgN/A
9:00 PM55 °FPartly cloudy.9 mph67%29.80 "HgN/A
8:30 PM57 °FPartly cloudy.12 mph51%29.77 "HgN/A
8:00 PM57 °FPartly cloudy.8 mph51%29.77 "HgN/A
7:30 PM59 °FBroken clouds.10 mph48%29.77 "HgN/A
7:00 PM59 °FPartly sunny.6 mph51%29.77 "HgN/A
6:30 PM59 °FBroken clouds.9 mph51%29.77 "HgN/A
6:00 PM59 °FSprinkles. Broken clouds.16 mph51%29.74 "HgN/A
5:30 PM61 °FPartly sunny.9 mph45%29.74 "HgN/A
5:00 PM59 °FPartly sunny.8 mph63%29.74 "HgN/A
4:30 PM61 °FBroken clouds.7 mph63%29.74 "HgN/A
4:00 PM59 °FPartly sunny.9 mph68%29.74 "HgN/A
3:30 PM59 °FBroken clouds.8 mph68%29.74 "HgN/A
3:00 PM57 °FSprinkles. Broken clouds.7 mph72%29.74 "HgN/A
2:30 PM55 °FPartly sunny.10 mph82%29.74 "HgN/A
2:00 PM57 °FBroken clouds.10 mph77%29.74 "HgN/A
1:00 PM57 °FScattered showers. Broken clouds.13 mph77%29.74 "HgN/A
12:30 PM55 °FSprinkles. Broken clouds.14 mph82%29.74 "HgN/A
12:00 PM59 °FScattered clouds.10 mph77%29.74 "HgN/A
11:30 AM59 °FSprinkles. Broken clouds.12 mph72%29.74 "HgN/A
11:00 AM63 °FScattered showers. Broken clouds.13 mph52%29.74 "HgN/A
10:30 AM61 °FPartly sunny.16 mph52%29.74 "HgN/A
10:00 AM59 °FBroken clouds.13 mph55%29.74 "HgN/A
Weather by CustomWeather, © 2014

See weather overviewHow to use our weather pages